TimeEST,TemperatureF,Dew PointF,Humidity,Sea Level PressureIn,VisibilityMPH,Wind Direction,Wind SpeedMPH,Gust SpeedMPH,PrecipitationIn,Events,Conditions,WindDirDegrees,DateUTC
12:53 AM,57.9,53.1,84,30.18,10.0,Calm,Calm,-,N/A,,Clear,0,2012-11-19 05:53:00
1:53 AM,55.9,52.0,87,30.17,10.0,NNW,3.5,-,N/A,,Clear,340,2012-11-19 06:53:00
2:53 AM,55.0,52.0,89,30.18,10.0,North,3.5,-,N/A,,Clear,350,2012-11-19 07:53:00
3:53 AM,54.0,52.0,93,30.18,9.0,Calm,Calm,-,N/A,,Clear,0,2012-11-19 08:53:00
4:53 AM,54.0,52.0,93,30.17,10.0,North,5.8,-,N/A,,Clear,360,2012-11-19 09:53:00
5:53 AM,53.1,51.1,93,30.17,10.0,North,8.1,-,N/A,,Clear,360,2012-11-19 10:53:00
6:53 AM,53.1,50.0,89,30.18,10.0,North,9.2,-,N/A,,Clear,10,2012-11-19 11:53:00
7:53 AM,55.0,50.0,83,30.19,10.0,North,9.2,-,N/A,,Clear,360,2012-11-19 12:53:00
8:53 AM,57.9,51.1,78,30.19,10.0,NNE,6.9,-,N/A,,Partly Cloudy,30,2012-11-19 13:53:00
9:53 AM,59.0,51.1,75,30.20,10.0,NNE,6.9,-,N/A,,Scattered Clouds,20,2012-11-19 14:53:00
10:53 AM,61.0,52.0,72,30.19,10.0,North,9.2,-,N/A,,Scattered Clouds,350,2012-11-19 15:53:00
11:53 AM,64.0,53.1,67,30.16,10.0,North,6.9,-,N/A,,Scattered Clouds,10,2012-11-19 16:53:00
12:53 PM,66.9,53.1,61,30.12,10.0,North,9.2,-,N/A,,Scattered Clouds,360,2012-11-19 17:53:00
1:53 PM,68.0,54.0,61,30.11,10.0,NE,4.6,-,N/A,,Scattered Clouds,50,2012-11-19 18:53:00
2:53 PM,69.1,54.0,58,30.09,10.0,North,4.6,-,N/A,,Scattered Clouds,10,2012-11-19 19:53:00
3:53 PM,69.1,55.0,61,30.09,10.0,NNE,5.8,-,N/A,,Scattered Clouds,30,2012-11-19 20:53:00
4:53 PM,64.9,54.0,68,30.10,10.0,ENE,6.9,-,N/A,,Mostly Cloudy,60,2012-11-19 21:53:00
5:53 PM,63.0,54.0,72,30.12,10.0,NE,5.8,-,N/A,,Mostly Cloudy,40,2012-11-19 22:53:00
6:53 PM,61.0,53.1,75,30.12,10.0,NE,6.9,-,N/A,,Mostly Cloudy,40,2012-11-19 23:53:00
7:53 PM,61.0,53.1,75,30.13,10.0,NNE,5.8,-,N/A,,Mostly Cloudy,20,2012-11-20 00:53:00
8:47 PM,60.8,57.2,88,30.18,20.0,WNW,9.2,-,N/A,,Clear,300,2012-11-20 01:47:00
8:53 PM,60.1,53.1,78,30.14,10.0,NNE,8.1,-,N/A,,Overcast,30,2012-11-20 01:53:00
9:53 PM,60.8,53.6,77,30.14,10.0,NE,8.1,-,N/A,,Overcast,40,2012-11-20 02:53:00
10:53 PM,59.0,52.0,78,30.14,10.0,NNE,8.1,-,N/A,,Overcast,20,2012-11-20 03:53:00
11:53 PM,59.0,52.0,78,30.12,10.0,NNE,6.9,-,N/A,,Overcast,20,2012-11-20 04:53:00